Vorticity
nan nan nan nan nan nan nan nan nan nan nan nan nan nan nan nan nan nan nan nan nan nan nan nan nan nan nan nan nan nan nan nan nan nan nan nan nan nan nan nan nan nan nan nan nan nan nan nan nan
nan -0 4 6 4 4 5 5 9 12 6 6 3 1 6 9 17 12 10 12 5 4 8 9 8 5 5 5 5 4 5 6 6 5 5 5 5 6 7 7 5 6 6 5 5 5 5 5 nan
nan 4 5 10 11 5 7 4 5 13 6 8 6 5 7 11 10 7 12 7 4 4 8 11 8 6 5 4 4 4 5 5 6 6 5 5 6 7 6 5 6 6 5 5 5 4 5 5 nan
nan 7 6 10 6 8 10 5 10 8 5 13 8 4 11 10 9 17 11 3 3 5 8 10 7 5 5 5 4 4 6 5 4 6 6 5 6 6 5 6 6 5 5 5 5 4 5 5 nan
nan 6 6 5 6 6 3 7 15 7 8 12 6 5 4 15 20 10 5 5 4 5 8 8 7 5 5 5 5 5 6 6 5 4 4 6 6 6 5 4 5 5 5 5 5 4 4 4 nan
nan 6 7 9 7 5 6 6 4 13 13 5 5 6 13 17 5 3 5 6 6 6 6 9 7 5 6 5 4 6 5 4 5 6 6 5 5 5 5 4 4 5 5 5 5 4 3 2 nan
nan 8 12 3 -2 5 5 6 12 9 3 3 5 5 13 7 5 7 7 6 6 6 5 6 7 9 5 3 7 6 4 4 4 4 4 5 5 5 5 4 5 5 5 5 5 4 3 2 nan
nan 8 7 6 4 3 4 7 8 3 5 9 5 8 11 7 8 8 6 6 6 5 4 6 7 6 6 9 9 4 4 4 4 4 5 6 5 5 4 5 5 5 4 4 5 5 4 3 nan
nan 8 5 10 8 6 8 5 5 8 11 12 12 13 11 11 7 4 4 4 5 6 5 5 7 7 6 8 8 8 6 5 5 6 5 2 4 8 7 6 6 5 5 5 5 5 4 5 nan
nan 9 9 7 8 12 10 7 7 7 8 12 17 12 9 9 4 4 3 4 5 6 5 5 5 5 6 6 6 6 5 6 7 7 6 6 7 7 9 9 8 6 5 7 6 7 8 6 nan
nan 9 9 10 11 10 4 8 9 5 5 16 13 5 5 6 4 4 6 7 6 3 5 7 5 5 5 5 6 6 7 7 9 7 6 6 7 7 7 7 7 9 9 9 9 9 10 9 nan
nan 12 10 10 8 7 10 6 8 9 10 11 8 3 4 7 9 4 5 4 7 7 6 6 6 6 3 5 8 7 6 6 7 9 8 6 7 8 7 7 7 7 11 8 7 8 8 9 nan
nan 8 18 7 5 7 4 1 7 11 19 13 9 3 4 6 10 7 6 6 5 6 7 7 6 6 6 4 6 8 7 7 8 8 8 6 7 7 6 7 7 7 8 7 8 7 8 8 nan
nan 12 13 11 6 3 4 4 5 8 14 11 4 6 7 7 7 8 8 7 6 8 7 7 6 7 8 6 6 7 8 9 8 8 8 6 6 7 6 6 8 7 7 7 8 8 8 8 nan
nan 12 15 19 2 -2 -2 4 12 6 6 5 5 4 7 6 8 11 8 11 5 8 14 10 7 8 8 7 5 6 9 9 7 9 10 10 8 6 6 7 8 7 8 8 7 8 7 8 nan
nan 10 12 16 6 2 -0 14 3 2 8 7 4 5 10 9 8 13 11 6 10 12 11 10 9 8 8 7 6 7 7 7 8 10 7 8 8 9 9 9 7 9 8 8 8 8 8 8 nan
nan 8 8 15 12 6 6 14 13 6 3 6 7 10 7 10 10 12 14 9 4 4 8 8 10 9 7 7 7 7 6 7 10 11 10 3 6 11 8 7 10 11 9 7 8 7 9 8 nan
nan 6 10 5 9 12 9 19 20 9 4 4 5 7 6 9 8 7 12 8 4 5 6 6 9 8 6 6 8 7 8 8 9 10 12 7 6 6 8 10 10 6 9 10 11 9 7 7 nan
nan 7 6 6 6 12 11 15 15 7 -2 4 9 4 8 10 8 10 9 6 2 5 9 7 6 5 5 7 8 9 9 9 7 8 9 6 8 10 10 13 9 5 9 9 6 9 9 9 nan
nan 10 5 10 12 11 11 11 19 10 9 7 6 6 6 7 14 13 9 5 7 4 4 7 6 7 6 6 8 9 9 9 9 9 7 9 9 8 9 7 8 8 6 9 11 8 9 11 nan
nan 9 9 7 10 11 11 8 12 7 11 11 6 7 7 12 14 12 13 4 5 7 7 8 8 6 6 6 6 7 8 8 9 9 10 9 11 6 5 7 9 8 8 8 9 9 8 9 nan
nan 9 6 4 10 13 5 12 8 14 7 5 4 6 5 6 12 12 12 8 5 6 6 9 10 8 8 8 7 8 8 7 8 9 11 8 8 8 8 10 9 9 8 9 9 9 9 8 nan
nan 10 7 8 13 6 6 19 10 11 12 10 5 6 6 8 9 8 11 10 6 8 7 7 9 9 9 9 9 8 8 8 10 10 11 12 12 11 9 11 8 9 9 9 8 8 9 9 nan
nan 7 8 13 12 7 12 4 9 10 10 16 13 8 1 4 11 9 11 14 9 8 8 9 9 10 10 9 9 9 8 7 9 10 9 11 10 8 7 8 9 9 9 10 10 10 10 9 nan
nan 9 7 5 11 10 8 8 9 6 12 23 17 3 5 5 2 7 14 15 12 9 8 11 9 9 9 8 8 7 8 9 8 8 9 8 6 7 8 7 8 10 9 10 11 12 11 10 nan
nan 8 6 11 7 9 9 8 11 9 15 21 17 5 6 6 2 9 18 12 11 8 7 9 8 8 8 8 8 9 9 9 9 9 9 8 8 8 8 8 8 9 9 9 11 12 11 10 nan
nan 12 9 1 10 15 7 4 10 13 11 22 23 13 11 6 8 15 13 8 8 8 9 7 6 8 9 9 9 9 9 9 9 8 8 8 9 8 9 7 7 8 9 10 12 9 8 11 nan
nan 5 6 9 12 5 10 12 7 10 7 13 25 17 18 9 13 14 8 8 8 8 8 8 9 8 9 9 8 9 9 8 8 8 8 8 7 9 9 6 7 7 9 10 10 9 9 10 nan
nan 8 11 15 7 8 9 10 16 6 3 16 14 4 20 18 12 7 8 8 9 8 9 7 7 8 9 8 9 9 8 8 8 9 8 8 9 8 8 7 7 7 9 10 9 8 8 9 nan
nan nan nan nan nan nan nan nan nan nan nan nan nan nan nan nan nan nan nan nan nan nan nan nan nan nan nan nan nan nan nan nan nan nan nan nan nan nan nan nan nan nan nan nan nan nan nan nan nan
CAPE
1515 1260 1321 2294 867 129 111 159 131 495 732 339 236 218 11 120 352 8 517 262 337 909 1881 2517 2673 2412 2125 2428 2147 2210 2212 1745 2153 1986 1804 1703 1666 1597 1981 1379 1711 1835 1891 1777 1781 1770 1743 1924 1775
1403 1516 1901 2510 534 42 74 218 287 740 638 51 151 79 148 320 739 595 313 255 688 1451 1823 2174 2713 2684 2260 2081 2354 2233 2186 960 1699 2020 1901 1675 1932 1777 1995 1816 1703 1799 1767 1799 1800 1898 1861 1828 1922
2150 2243 2868 1741 1 113 31 103 180 761 822 368 276 93 56 762 675 430 296 462 870 1310 1748 2047 2998 2949 2341 2045 2222 1662 2005 1591 2412 2217 2361 2167 2097 2151 2045 1923 1923 1746 1756 1714 1880 1735 1663 1604 1685
2576 2703 774 145 0 5 35 77 291 397 216 31 14 59 264 753 496 379 528 424 528 1138 1607 2692 3022 2211 2351 2412 1917 2161 2072 1849 1600 1731 1486 1468 1608 1476 1603 1953 1941 1773 1874 1777 1636 1643 1790 1719 1853
1729 250 59 45 17 15 21 81 150 440 194 90 42 67 132 334 374 498 451 376 518 1177 1861 2091 2880 3068 2650 2304 2202 2335 2304 2446 2201 1885 1684 2125 2019 1942 2010 1505 1112 1494 1460 1800 1998 1879 1668 1186 1038
582 159 45 21 112 155 68 64 266 478 453 36 67 43 110 348 408 512 572 854 932 1272 1659 2057 2857 3166 2995 2173 2295 2287 2118 1931 1953 2119 2112 1421 1385 1745 1776 1416 1009 677 964 1212 1884 1777 1699 1601 1324
315 52 39 238 167 1 0 22 308 483 672 439 19 66 43 247 336 616 1044 1179 1205 1413 1644 1716 1735 2378 2338 2781 2415 2597 2358 1874 1770 1574 1559 1898 2022 1987 2059 1750 1617 1386 656 532 941 1144 1671 1558 1542
893 81 42 122 267 137 0 60 162 90 413 188 0 0 10 42 467 837 1036 1212 1212 1218 1611 1649 1622 1774 1835 1951 2553 2086 1642 1456 1933 1863 1920 1693 1256 1300 1273 1969 1813 1499 1360 1388 1066 1065 1356 1618 1680
0 26 32 194 360 282 162 77 9 58 279 369 45 0 0 34 686 550 690 1245 1144 1114 1190 1239 1265 1196 1374 1347 1679 2415 1836 2372 2244 1939 2014 2598 1233 1107 649 1118 1412 1191 1218 1312 1394 1369 1363 1500 1608
8 0 35 195 79 57 100 169 90 165 451 148 0 0 0 587 497 267 558 627 836 901 919 939 1042 1055 984 1369 1036 1258 1282 1581 1229 1033 1062 1103 665 369 212 702 824 58 18 120 635 1064 935 944 753
9 0 102 424 257 140 133 104 205 236 319 274 0 0 0 202 287 284 672 693 690 530 1128 1209 976 864 659 817 705 784 791 884 808 685 659 724 515 451 897 511 67 12 26 0 47 131 336 142 203
8 1 133 402 406 165 203 299 304 511 571 352 0 0 0 0 97 300 717 725 770 612 878 1097 1154 989 533 548 654 907 768 699 645 753 484 406 662 373 360 94 8 15 8 1 12 27 49 113 44
5 3 71 389 369 154 262 89 299 525 459 308 0 0 0 0 0 161 438 438 484 599 721 522 576 615 645 454 551 551 621 651 495 376 506 631 535 293 185 118 70 69 5 0 0 16 22 36 29
2 0 24 418 307 252 208 121 709 566 524 132 61 9 0 0 0 0 30 235 113 234 344 260 225 88 265 529 328 353 362 330 306 195 97 741 577 402 248 103 67 105 95 24 9 67 63 63 105
0 0 0 87 180 281 233 127 801 37 329 332 152 178 48 0 0 0 0 66 36 0 27 95 77 221 448 377 426 242 234 456 504 332 170 179 712 451 418 203 83 113 121 197 97 64 62 111 162
0 0 0 0 200 413 43 135 655 0 268 267 358 477 419 285 0 0 0 4 33 86 103 118 289 266 236 216 499 408 126 79 215 389 432 418 699 628 447 213 66 80 147 159 127 121 104 67 56
0 0 5 5 20 210 143 307 720 0 121 391 669 825 433 244 46 13 0 75 121 146 167 151 582 358 469 494 582 658 758 543 364 737 666 509 301 106 681 469 250 163 250 289 343 189 195 205 137
0 0 0 1 3 97 44 47 828 171 536 356 429 720 569 323 86 296 494 201 186 237 155 3 321 791 973 1048 1182 1185 947 1063 1090 907 794 557 71 1 0 264 282 335 118 535 444 499 193 194 206
0 0 0 0 2 72 89 85 508 681 189 212 396 593 307 387 280 361 632 384 117 78 111 48 60 190 1071 722 1210 1253 1410 1141 661 709 224 617 217 547 477 291 227 82 262 306 325 262 476 379 287
0 0 0 2 24 4 15 96 230 213 496 320 353 121 95 160 206 317 830 611 388 188 30 36 73 39 1263 1253 905 1376 1239 938 209 735 225 346 443 150 122 165 249 282 187 178 364 616 393 332 99
0 0 1 26 0 0 0 18 485 451 422 194 99 51 57 214 29 49 1047 860 593 290 240 118 102 79 324 1707 1347 1501 986 435 327 299 353 375 375 156 131 95 284 209 394 616 544 356 379 258 143
0 0 41 6 2 0 0 0 34 471 511 365 79 1 93 204 132 301 1026 894 594 376 662 621 297 197 644 1374 1813 1231 1104 917 766 319 152 379 330 215 244 845 580 398 288 493 431 461 359 159 104
0 0 0 0 0 0 0 0 0 3 680 449 191 143 311 220 355 815 1156 1211 742 845 956 902 458 484 1425 1837 1604 1185 1341 1119 950 826 683 729 891 336 689 609 405 616 527 451 369 290 211 178 73
0 0 0 0 0 0 0 0 13 25 4 214 308 265 110 56 114 935 590 1598 1603 1538 1749 1588 853 2312 2327 1709 1904 1490 1306 1315 1117 703 466 228 218 193 154 214 437 246 178 183 289 219 149 119 2
0 0 0 0 0 0 0 0 13 12 15 27 266 264 58 0 0 579 792 1681 2223 2443 2779 2914 2600 2564 1968 1921 1901 1473 1735 1522 1179 757 229 107 78 79 37 18 24 31 14 18 31 97 122 127 12
0 0 6 11 0 2 0 0 0 0 0 0 434 399 240 3 1 486 1197 1998 2385 2628 2778 2896 2448 2242 2018 2396 2323 2064 1796 1301 745 262 1 0 12 26 28 80 40 3 0 0 0 39 66 100 38
0 0 0 0 0 0 0 0 0 0 0 0 4 267 540 642 298 599 1734 1906 2141 2328 2551 2617 2418 2341 2417 2260 2107 1895 1371 875 76 0 0 0 0 62 181 103 0 0 0 0 0 0 0 0 0
0 0 0 0 0 0 0 0 0 0 3 2 335 625 580 798 1077 1759 1851 1866 2285 2571 2730 2783 2536 2311 2139 2294 1883 1452 1110 325 25 0 5 3 0 152 97 39 0 0 0 0 0 0 0 0 0
0 0 0 0 0 0 0 0 0 0 0 40 315 369 385 1486 1831 1919 1944 1884 2223 2716 2775 2653 2368 2324 2448 2113 1623 1460 499 109 55 0 2 2 175 29 7 29 0 0 0 0 0 0 0 0 0
0 0 0 0 0 0 0 0 21 64 8 141 205 305 543 709 1611 1716 1879 1758 2476 2503 2543 2454 2374 2589 2482 1825 1589 1499 621 0 0 0 23 241 103 22 13 22 18 4 0 0 0 0 0 0 0